Weather History for Ft Lauderdale, FL

Change the Weather History Date:

Tuesday, January 22, 2013

  Actual Average Record
Temperature  
Mean Temperature 71 °F 69 °F  
Max Temperature 78 °F 76 °F 88 °F (1926)
Min Temperature 63 °F 62 °F 29 °F (1985)
Degree Days  
Heating Degree Days 0 1  
Month to date heating degree days 2 38  
Since 1 July heating degree days 24 70  
Cooling Degree Days 6 5  
Month to date cooling degree days 198 119  
Year to date cooling degree days 198 119  
Growing Degree Days 20 (Base 50)    
Moisture  
Dew Point 58 °F    
Average Humidity 72    
Maximum Humidity 93    
Minimum Humidity 50    
Precipitation  
Precipitation 0.00 in 0.17 in 2.00 in (1936)
Month to date precipitation 0.96 2.06  
Year to date precipitation 0.96 2.06  
Snow  
Snow 0.00 in - - ()
Month to date snowfall 0.0  
Since 1 July snowfall 0.0  
Snow Depth 0.00 in    
Sea Level Pressure  
Sea Level Pressure 30.10 in    
Wind  
Wind Speed 12 mph (North)    
Max Wind Speed 21 mph    
Max Gust Speed 28 mph    
Visibility 10 miles    
Events      
T = Trace of Precipitation, MM = Missing Value Source: NWS Daily Summary

Daily Weather History Graph

Daily Weather History Graph

Search for Another Location

Airport:

Trip Planner

Search our weather history database for the weather conditions in past years. The results will help you decide how hot, cold, wet, or windy it might be!

Date:

Astronomy

Jan. 22, 2013 Rise Set
Actual Time 7:08 AM EST 5:56 PM EST
Civil Twilight 6:43 AM EST 6:21 PM EST
Nautical Twilight 6:15 AM EST 6:49 PM EST
Astronomical Twilight 5:48 AM EST 7:16 PM EST
Moon 2:22 PM EST (1/22) 3:25 AM EST (1/22)
Length of Visible Light 11h 37m
Length of Day
10h 48m
Waxing Gibbous, 82% of the Moon is Illuminated
Jan 22
Waxing Gibbous
Jan 26
Full
Feb 3
Last Quarter
Feb 10
New
Feb 17
First Quarter

Hourly Weather History & Observations

Time (EST) Temp. Dew Point Humidity Pressure Visibility Wind Dir Wind Speed Gust Speed Precip Events Conditions
12:53 AM 66.9 °F 64.0 °F 90% 30.03 in 10.0 mi NW 5.8 mph - N/A   Partly Cloudy
1:53 AM 66.0 °F 63.0 °F 90% 30.02 in 10.0 mi NW 4.6 mph - N/A   Clear
2:53 AM 66.0 °F 63.0 °F 90% 30.01 in 10.0 mi WNW 6.9 mph - N/A   Mostly Cloudy
3:06 AM 66.2 °F 62.6 °F 88% 30.01 in 10.0 mi NW 5.8 mph - N/A   Overcast
3:53 AM 66.0 °F 63.0 °F 90% 30.01 in 10.0 mi NW 11.5 mph - N/A   Scattered Clouds
4:53 AM 64.9 °F 61.0 °F 87% 30.02 in 10.0 mi NW 5.8 mph - N/A   Clear
5:53 AM 64.0 °F 60.1 °F 87% 30.04 in 10.0 mi NW 9.2 mph - N/A   Scattered Clouds
6:53 AM 63.0 °F 59.0 °F 87% 30.06 in 10.0 mi NW 9.2 mph - N/A   Partly Cloudy
7:53 AM 64.0 °F 59.0 °F 84% 30.09 in 10.0 mi NW 8.1 mph - N/A   Partly Cloudy
8:53 AM 66.9 °F 57.9 °F 73% 30.10 in 10.0 mi NNW 13.8 mph - N/A   Partly Cloudy
9:53 AM 71.1 °F 57.9 °F 63% 30.12 in 10.0 mi NNW 12.7 mph - N/A   Partly Cloudy
10:53 AM 72.0 °F 57.9 °F 61% 30.13 in 10.0 mi North 13.8 mph - N/A   Partly Cloudy
11:53 AM 73.9 °F 57.9 °F 57% 30.12 in 10.0 mi North 15.0 mph - N/A   Partly Cloudy
12:53 PM 75.9 °F 59.0 °F 56% 30.09 in 10.0 mi North 11.5 mph - N/A   Scattered Clouds
1:53 PM 75.0 °F 57.9 °F 55% 30.08 in 10.0 mi North 13.8 mph - N/A   Mostly Cloudy
2:53 PM 77.0 °F 57.0 °F 50% 30.08 in 10.0 mi NNE 10.4 mph 18.4 mph N/A   Scattered Clouds
3:53 PM 75.9 °F 57.0 °F 52% 30.10 in 10.0 mi North 19.6 mph 24.2 mph N/A   Partly Cloudy
4:53 PM 72.0 °F 55.9 °F 57% 30.12 in 10.0 mi North 16.1 mph - N/A   Partly Cloudy
5:53 PM 71.1 °F 55.9 °F 59% 30.14 in 10.0 mi North 11.5 mph - N/A   Partly Cloudy
6:53 PM 71.1 °F 55.0 °F 57% 30.14 in 10.0 mi NNE 19.6 mph 25.3 mph N/A   Mostly Cloudy
7:53 PM 71.1 °F 54.0 °F 55% 30.16 in 10.0 mi NE 15.0 mph 24.2 mph N/A   Mostly Cloudy
8:53 PM 70.0 °F 53.1 °F 55% 30.17 in 10.0 mi NNE 16.1 mph - N/A   Mostly Cloudy
9:53 PM 70.0 °F 53.1 °F 55% 30.20 in 10.0 mi NE 12.7 mph - N/A   Mostly Cloudy
10:53 PM 70.0 °F 52.0 °F 53% 30.19 in 10.0 mi NE 18.4 mph - N/A   Scattered Clouds
11:53 PM 70.0 °F 54.0 °F 57% 30.19 in 10.0 mi NE 13.8 mph 20.7 mph N/A   Mostly Cloudy